Weather History for Knoxville, TN

Change the Weather History Date:

Wednesday, April 9, 2014

  Actual Average Record
Temperature  
Mean Temperature 56 °F 57 °F  
Max Temperature 65 °F 69 °F 86 °F (1919)
Min Temperature 46 °F 45 °F 23 °F (1985)
Degree Days  
Heating Degree Days 9 9  
Month to date heating degree days 56 89  
Since 1 July heating degree days 3636 3446  
Cooling Degree Days 0 1  
Month to date cooling degree days 5 7  
Year to date cooling degree days 5 12  
Growing Degree Days 5 (Base 50)    
Moisture  
Dew Point 39 °F    
Average Humidity 60    
Maximum Humidity 93    
Minimum Humidity 26    
Precipitation  
Precipitation T in 0.14 in 1.22 in (1874)
Month to date precipitation 2.27 1.20  
Year to date precipitation 12.76 14.12  
Snow  
Snow 0.00 in 0.00 in - ()
Month to date snowfall 0.0 0.2  
Since 1 July snowfall 12.4 6.2  
Snow Depth 0.00 in    
Sea Level Pressure  
Sea Level Pressure 30.00 in    
Wind  
Wind Speed 6 mph (WSW)    
Max Wind Speed 17 mph    
Max Gust Speed 23 mph    
Visibility 10 miles    
Events Rain    
T = Trace of Precipitation, MM = Missing Value Source: NWS Daily Summary

Daily Weather History Graph

Daily Weather History Graph

Search for Another Location

Airport:

Trip Planner

Search our weather history database for the weather conditions in past years. The results will help you decide how hot, cold, wet, or windy it might be!

Date:

Astronomy

Apr. 09, 2014 Rise Set
Actual Time 7:11 AM EDT 8:04 PM EDT
Civil Twilight 6:45 AM EDT 8:30 PM EDT
Nautical Twilight 6:14 AM EDT 9:01 PM EDT
Astronomical Twilight 5:42 AM EDT 9:33 PM EDT
Moon 3:01 PM EDT (4/9) 3:49 AM EDT (4/9)
Length of Visible Light 13h 45m
Length of Day
12h 53m
Waxing Gibbous, 71% of the Moon is Illuminated
Apr 9
Waxing Gibbous
Apr 15
Full
Apr 22
Last Quarter
Apr 29
New
May 6
First Quarter

Hourly Weather History & Observations

Time (EDT) Temp. Dew Point Humidity Pressure Visibility Wind Dir Wind Speed Gust Speed Precip Events Conditions
12:53 AM 50.0 °F 43.0 °F 77% 29.83 in 10.0 mi WSW 4.6 mph - 0.00 in Rain Light Rain
1:53 AM 48.0 °F 45.0 °F 89% 29.85 in 10.0 mi SW 6.9 mph - 0.00 in Rain Light Rain
2:53 AM 48.0 °F 45.0 °F 89% 29.86 in 10.0 mi SW 6.9 mph - 0.00 in   Overcast
3:53 AM 48.0 °F 46.0 °F 93% 29.86 in 10.0 mi SW 6.9 mph - 0.00 in   Overcast
4:53 AM 48.0 °F 45.0 °F 89% 29.88 in 10.0 mi SW 6.9 mph - N/A   Overcast
5:53 AM 46.9 °F 45.0 °F 93% 29.89 in 10.0 mi SSW 5.8 mph - 0.00 in   Overcast
6:53 AM 46.9 °F 44.1 °F 90% 29.93 in 10.0 mi SSW 4.6 mph - N/A   Overcast
7:53 AM 48.0 °F 45.0 °F 89% 29.98 in 10.0 mi SW 5.8 mph - N/A   Mostly Cloudy
8:53 AM 48.9 °F 45.0 °F 86% 30.02 in 10.0 mi Calm Calm - N/A   Mostly Cloudy
9:53 AM 53.1 °F 45.0 °F 74% 30.03 in 10.0 mi SSW 4.6 mph - N/A   Scattered Clouds
10:53 AM 54.0 °F 41.0 °F 62% 30.05 in 10.0 mi WNW 6.9 mph - N/A   Scattered Clouds
11:53 AM 59.0 °F 37.0 °F 44% 30.06 in 10.0 mi Variable 6.9 mph - N/A   Partly Cloudy
12:53 PM 59.0 °F 33.1 °F 38% 30.06 in 10.0 mi Variable 3.5 mph - N/A   Mostly Cloudy
1:53 PM 60.1 °F 33.1 °F 36% 30.05 in 10.0 mi West 10.4 mph - N/A   Mostly Cloudy
2:53 PM 62.1 °F 32.0 °F 32% 30.04 in 10.0 mi NNW 4.6 mph - N/A   Scattered Clouds
4:53 PM 63.0 °F 33.1 °F 33% 30.03 in 10.0 mi WSW 3.5 mph - N/A   Scattered Clouds
5:53 PM 64.0 °F 28.9 °F 27% 30.04 in 10.0 mi West 10.4 mph - N/A   Scattered Clouds
6:53 PM 62.1 °F 28.9 °F 29% 30.05 in 10.0 mi West 10.4 mph - N/A   Scattered Clouds
8:53 PM 59.0 °F 30.0 °F 33% 30.09 in 10.0 mi West 4.6 mph - N/A   Partly Cloudy
9:53 PM 55.0 °F 33.1 °F 43% 30.11 in 10.0 mi WSW 3.5 mph - N/A   Clear
10:53 PM 52.0 °F 33.1 °F 49% 30.12 in 10.0 mi SSW 5.8 mph - N/A   Clear
11:53 PM 50.0 °F 35.1 °F 57% 30.12 in 10.0 mi SSE 3.5 mph - N/A   Clear